Terug naar catalogus

YUNYAO-1 55

ActiefWeerSSO
NORAD 63291·PAYLOAD·🇨🇳 China
Deze satellietnaam is nog niet bevestigd door officiële bronnen.

Gelanceerd Mar 17, 2025 vanaf Jiuquan Satellite Launch Center

Loading…

Volgende Passages (komende 24 uur)

TLE

VersSource: Space-Track

Epoch: Sep 14, 2026, 20:15 UTC

1 63291U 25055A   26257.84391535  .00006411  00000-0  35701-3 0  9999
2 63291  97.6654  38.2126 0024383 149.8110 210.4532 15.13731266 82615

Volg YUNYAO-1 55 in realtime met AllMySat

Download on the App Store